Flag for Canada Weather past 2 weeks in Peterborough, Ontario, Canada

Now
72 °F

Clear.


Feels Like: 75 °F
Forecast: 62 / 82 °F
Wind: 10 mph from Southwest

Location: Peterborough Airport

Current Time: May 25, 2015 at 10:45:04 PM

Latest Report: May 25, 2015 at 10:00 PM


Visibility: 9 mi

Pressure: 29.94 "Hg

Humidity: 65%

Dew point: 59 °F

Location of PeterboroughLocation

Historic Weather in Peterborough — Graph

°F

Peterborough temperature yesterday

Maximum temperature yesterday: 79 °F (at 2:00 PM)
Minimum temperature yesterday: 43 °F (at 1:00 AM)
Average temperature yesterday: 64 °F

Past Weeks' High & Low Weather Summary

 TemperatureHumidityPressure
High81 °F (May 18, 4:00 PM)100% (May 10, 9:00 PM)30.49 "Hg (May 10, 9:00 PM)
Low28 °F (May 23, 3:00 AM)23% (May 20, 5:00 PM)29.72 "Hg (May 12, 4:00 AM)
Average56 °F69%30.08 "Hg
* Reported May 10 9:00 PM — May 25 9:00 PM, Peterborough, Weather by CustomWeather, © 2015

Note: Actual official high and low records may vary slightly from our data, if they occured in-between our weather recording intervals... More about our weather records

Advertising

Peterborough weather history for previous 24 hours

 ConditionsComfort  
Time TempWeatherWind HumidityBarometerVisibility
9:00 PM
Mon, May 25
73 °FOvercast.9 mph61%29.93 "Hg9 mi
8:00 PM75 °FCloudy.9 mph61%29.93 "Hg9 mi
7:00 PM75 °FMostly cloudy.12 mph61%29.94 "Hg9 mi
6:00 PM73 °FPartly sunny.8 mph65%29.95 "Hg9 mi
5:00 PM72 °FMostly cloudy.7 mph69%29.96 "Hg9 mi
4:00 PM70 °FMostly cloudy.7 mph78%29.98 "Hg9 mi
3:51 PM70 °FMore clouds than sun.7 mph73%29.98 "Hg9 mi
3:00 PM70 °FLight rain. Mostly cloudy.12 mph69%30.00 "Hg9 mi
2:00 PM72 °FBroken clouds.8 mph65%30.00 "Hg9 mi
1:51 PM70 °FMostly cloudy.7 mph69%30.01 "Hg9 mi
1:00 PM72 °FPartly sunny.12 mph57%30.01 "Hg9 mi
12:00 PM70 °FPartly sunny.12 mph60%30.03 "Hg9 mi
11:00 AM68 °FBroken clouds.10 mph69%30.08 "Hg9 mi
10:00 AM63 °FBroken clouds.5 mph88%30.10 "Hg9 mi
9:00 AM61 °FBroken clouds.2 mph88%30.12 "Hg9 mi
8:00 AM59 °FLight rain. Overcast.No wind94%30.12 "Hg9 mi
7:47 AM59 °FLight rain. Overcast.3 mph88%30.12 "Hg9 mi
7:00 AM57 °FLight rain. More clouds than sun.5 mph94%30.12 "Hg9 mi
6:00 AM57 °FLight rain. Fog.5 mph100%30.14 "Hg5 mi
5:56 AM57 °FLight rain. Fog.2 mph100%30.14 "Hg5 mi
5:00 AM57 °FLight rain. Overcast.No wind94%30.15 "Hg9 mi
4:00 AM61 °FLight rain. Mostly cloudy.3 mph83%30.14 "Hg9 mi
3:00 AM63 °FLight rain. Overcast.3 mph73%30.14 "Hg9 mi
2:00 AM61 °FOvercast.3 mph72%30.13 "Hg9 mi
1:00 AM61 °FMostly cloudy.2 mph77%30.12 "Hg9 mi
12:00 AM59 °FOvercast.6 mph82%30.12 "Hg9 mi
11:00 PM
Sun, May 24
61 °FPartly cloudy.No wind77%30.13 "Hg9 mi
10:00 PM61 °FPassing clouds.3 mph72%30.13 "Hg9 mi
Weather by CustomWeather, © 2015

See weather overviewHow to use our weather pages